Regional Weather Roundup
Issued by NWS

Home | Current Version | Previous Version | Text Only | Print | Product List | Glossary On
Versions: 1 2 3 4 5 6 7 8 9 10 11 12 13 14 15 16 17 18 19 20 21 22 23 24 25 26 27 28 29 30 31 32 33 34 35 36 37 38 39 40 41 42 43 44 45 46 47 48 49 50
000
ASUS43 KOAX 151210
RWRNE

WEATHER ROUNDUP FOR NEBRASKA
NATIONAL WEATHER SERVICE OMAHA NE
600 AM CST FRI DEC 15 2017

NOTES: SATELLITE DATA IS BEING USED TO AUGMENT CLOUD COVER ABOVE
       12000 FEET.
       "FAIR" INDICATES FEW OR NO CLOUDS BELOW 12,000 FEET WITH NO
       SIGNIFICANT WEATHER AND/OR OBSTRUCTIONS TO VISIBILITY.


NEZ001>004-019>022-054>056-151300-
NEBRASKA PANHANDLE

CITY           SKY/WX    TMP DP  RH WIND       PRES   REMARKS
SCOTTSBLUFF    CLOUDY    11   8  88 NW7       30.01F WCI   0
6HR MIN TEMP:  10; 6HR MAX TEMP:  16;

ALLIANCE       CLOUDY    11   8  88 W8        29.96F WCI  -1
6HR MIN TEMP:   5; 6HR MAX TEMP:  13;

CHADRON        CLOUDY    18  13  80 SW7       29.96F WCI   9
6HR MIN TEMP:  13; 6HR MAX TEMP:  23;

GORDON         FAIR      21  15  76 W5        29.93F WCI  15
6HR MIN TEMP:  19; 6HR MAX TEMP:  24;

KIMBALL        CLOUDY    20  11  67 W10       30.02F WCI   9
SIDNEY         CLOUDY    24  15  68 W10       30.03F WCI  14
6HR MIN TEMP:   9; 6HR MAX TEMP:  24;

$$

NEZ057>060-069>072-079>082-151300-
SOUTHWEST NEBRASKA

CITY           SKY/WX    TMP DP  RH WIND       PRES   REMARKS
NORTH PLATTE   CLOUDY    16  12  84 W5        30.05F WCI   9
6HR MIN TEMP:  14; 6HR MAX TEMP:  22;

IMPERIAL       CLOUDY    18  14  84 W12       30.07F WCI   5
6HR MIN TEMP:  16; 6HR MAX TEMP:  21;

LEXINGTON      CLOUDY    23  19  84 CALM      30.08F
MCCOOK         CLOUDY    16  13  88 W8        30.10F WCI   5
6HR MIN TEMP:  15; 6HR MAX TEMP:  24;

OGALLALA       CLOUDY    17  13  84 W7        30.05F WCI   8
$$

NEZ005>010-023>029-035>040-094-151300-
NORTH CENTRAL NEBRASKA

CITY           SKY/WX    TMP DP  RH WIND       PRES   REMARKS
VALENTINE      PTCLDY    24  19  81 SW14      29.94F WCI  12
6HR MIN TEMP:  22; 6HR MAX TEMP:  26;

AINSWORTH      CLOUDY    24  21  88 SW10      29.95F WCI  14
BROKEN BOW     CLOUDY    20  15  81 W6        30.02F WCI  12
6HR MIN TEMP:  19; 6HR MAX TEMP:  31;

O`NEILL        CLOUDY    26  23  89 SW9       29.98F WCI  17
ORD            CLEAR     25  21  85 SW12      30.03F WCI  14
6HR MIN TEMP:  25; 6HR MAX TEMP:  30;

THEDFORD       CLOUDY    22  18  86 W6        29.99F WCI  14
$$

NEZ041-046>049-061>064-073>077-083>087-151300-
SOUTH CENTRAL NEBRASKA

CITY           SKY/WX    TMP DP  RH WIND       PRES   REMARKS
GRAND ISLAND   PTCLDY    26  23  88 SW12      30.09F WCI  16
6HR MIN TEMP:  24; 6HR MAX TEMP:  30;

AURORA         CLOUDY    26  22  85 W10       30.08F WCI  16
HASTINGS       CLEAR     23  18  81 SW6       30.10F WCI  16
6HR MIN TEMP:  20; 6HR MAX TEMP:  29;

HEBRON         CLEAR     25  21  86 W8        30.15S WCI  16
HOLDREGE       CLOUDY    20  19  94 SW7       30.09F WCI  11
KEARNEY        CLEAR     22  19  89 SW8       30.09F WCI  12
YORK           CLOUDY    25  25 100 W8        30.09F WCI  16
$$

NEZ011>018-030>034-042>045-151300-
NORTHEAST NEBRASKA

CITY           SKY/WX    TMP DP  RH WIND       PRES   REMARKS
NORFOLK        CLEAR     28  24  85 W10       30.01F WCI  19
6HR MIN TEMP:  28; 6HR MAX TEMP:  31;

ALBION         CLEAR     28  24  85 SW5       30.04F WCI  22
BLAIR          CLOUDY    33  26  78 SW10      30.04F WCI  24
COLUMBUS       CLEAR     27  23  85 SW12      30.07F WCI  17
FREMONT        CLOUDY    32  25  76 SW10      30.06F WCI  24
TEKAMAH        CLOUDY    33  23  66 W13       30.03F WCI  24
6HR MIN TEMP:  31; 6HR MAX TEMP:  34;

WAYNE          CLOUDY    32  27  81 W12       30.01F WCI  23
$$

NEZ050>053-065>068-078-088>093-151300-
SOUTHEAST NEBRASKA

CITY           SKY/WX    TMP DP  RH WIND       PRES   REMARKS
LINCOLN        CLOUDY    30  25  81 W12       30.11F WCI  20
6HR MIN TEMP:  30; 6HR MAX TEMP:  36;

OMAHA EPPLEY   CLOUDY    35  24  64 SW12      30.06F WCI  27
6HR MIN TEMP:  32; 6HR MAX TEMP:  36;

BEATRICE       PTCLDY    27  24  90 W9        30.12F WCI  17
FALLS CITY     CLOUDY    32  25  75 SW7       30.12F WCI  26
6HR MIN TEMP:  31; 6HR MAX TEMP:  37;

NEBRASKA CITY  CLOUDY    32  29  91 W9        30.10F WCI  24
PLATTSMOUTH    CLOUDY    32  28  83 SW9       30.08F WCI  24
$$

NEZ044-045-051>053-067-151300-
OMAHA AREA

CITY           SKY/WX    TMP DP  RH WIND       PRES   REMARKS
OMAHA EPPLEY   CLOUDY    35  24  64 SW12      30.06F WCI  27
6HR MIN TEMP:  32; 6HR MAX TEMP:  36;

BLAIR          CLOUDY    33  26  78 SW10      30.04F WCI  24
FREMONT        CLOUDY    32  25  76 SW10      30.06F WCI  24
MILLARD        CLOUDY    34  27  75 W7        30.08S WCI  28
OFFUTT AFB     CLOUDY    33  25  72 W5        30.07F WCI  29
PLATTSMOUTH    CLOUDY    32  28  83 SW9       30.08F WCI  24
WAHOO          FAIR      32  26  78 SW12      30.07F WCI  23
$$




USA.gov is the U.S. government's official web portal to all federal, state and local government web resources and services.